Greenville, ME

2:05 PM EDT on October 19, 2019 (GMT -0400)
Greenville

Weather History for KGNR - August, 2019

Change the Weather History Date:

Thursday, August 1, 2019

  Actual Average (KMLT) Record (KMLT)
Temperature  
Mean Temperature 68 °F 68 °F  
Max Temperature 75 °F 78 °F 91 °F (1908)
Min Temperature 62 °F 57 °F 42 °F (1961)
Degree Days  
Heating Degree Days 0 1  
Month to date heating degree days 1  
Since 1 June heating degree days 141  
Since 1 July heating degree days 25  
Cooling Degree Days 4 3  
Month to date cooling degree days 3  
Year to date cooling degree days 175  
Since 1 June cooling degree days 169  
Growing Degree Days 18 (Base 50)    
Moisture  
Dew Point 55 °F    
Average Humidity 66    
Maximum Humidity 97    
Minimum Humidity 33    
Precipitation  
Precipitation 0.00 in 0.13 in 2.70 in (1992)
Month to date precipitation 0.13  
Year to date precipitation 23.12  
Sea Level Pressure  
Sea Level Pressure 30.04 in    
Wind  
Wind Speed 6 mph (NW)    
Max Wind Speed 15 mph    
Max Gust Speed 22 mph    
T = Trace of Precipitation, MM = Missing Value Source: NWS Daily Summary

Daily Weather History Graph

Daily Weather History Graph

Search for Another Location

Airport or City:

Astronomy

Aug. 01, 2019 Rise Set
Actual Time 5:22 AM EDT 8:06 PM EDT
Civil Twilight 4:47 AM EDT 8:40 PM EDT
Nautical Twilight 4:04 AM EDT 9:23 PM EDT
Astronomical Twilight 3:14 AM EDT 10:13 PM EDT
Moon 5:41 AM EDT (8/1) 8:50 PM EDT (8/1)
Length of Visible Light 15h 52m
Length of Day
14h 44m
New Moon, 0% of the Moon is Illuminated
Aug 1
New Moon
Aug 7
First Quarter
Aug 15
Full
Aug 23
Last Quarter
Aug 30
New

Hourly Weather History & Observations

Time (EDT) Temp. Dew Point Humidity Pressure Visibility Wind Dir Wind Speed Gust Speed Precip Events Conditions
12:56 AM 64.9 °F 64.0 °F 97% 29.98 in - Calm Calm - N/A   Unknown
1:56 AM 64.0 °F 63.0 °F 96% 29.97 in - Calm Calm - N/A   Unknown
2:56 AM 63.0 °F 62.1 °F 97% 29.98 in - NW 3.5 mph - N/A   Unknown
3:56 AM 64.0 °F 62.1 °F 93% 29.99 in - NW 6.9 mph - N/A   Unknown
4:56 AM 63.0 °F 62.1 °F 97% 30.00 in - North 4.6 mph - N/A   Unknown
5:56 AM 64.0 °F 62.1 °F 93% 30.01 in - NNW 6.9 mph - N/A   Unknown
6:56 AM 64.9 °F 62.1 °F 90% 30.02 in - NNW 8.1 mph - N/A   Unknown
7:56 AM 66.0 °F 60.1 °F 81% 30.04 in - NNW 5.8 mph - N/A   Unknown
8:56 AM 66.0 °F 59.0 °F 78% 30.05 in - NW 10.4 mph - N/A   Unknown
9:56 AM 68.0 °F 59.0 °F 73% 30.06 in - NW 9.2 mph - N/A   Unknown
10:56 AM 71.1 °F 57.9 °F 63% 30.06 in - NW 9.2 mph - N/A   Unknown
11:56 AM 73.0 °F 55.0 °F 53% 30.06 in - NNW 12.7 mph 18.4 mph N/A   Unknown
12:56 PM 73.9 °F 53.1 °F 48% 30.06 in - North 10.4 mph - N/A   Unknown
1:56 PM 73.9 °F 48.9 °F 41% 30.06 in - NW 11.5 mph - N/A   Unknown
2:56 PM 75.9 °F 48.9 °F 38% 30.05 in - NNW 12.7 mph 18.4 mph N/A   Unknown
3:56 PM 75.0 °F 48.0 °F 38% 30.05 in - NW 12.7 mph 20.7 mph N/A   Unknown
4:56 PM 75.0 °F 44.1 °F 33% 30.05 in - NNW 11.5 mph 21.9 mph N/A   Unknown
5:56 PM 73.0 °F 46.9 °F 39% 30.05 in - NW 15.0 mph 21.9 mph N/A   Unknown
6:56 PM 71.1 °F 48.0 °F 44% 30.06 in - NNW 11.5 mph 17.3 mph N/A   Unknown
7:56 PM 66.9 °F 48.0 °F 51% 30.06 in - Variable 6.9 mph - N/A   Unknown
8:56 PM 64.0 °F 48.9 °F 58% 30.09 in - NW 5.8 mph - N/A   Unknown
9:56 PM 64.0 °F 48.9 °F 58% 30.09 in - WNW 4.6 mph - N/A   Unknown
10:56 PM 62.1 °F 50.0 °F 65% 30.09 in - NW 5.8 mph - N/A   Unknown
11:56 PM 63.0 °F 48.0 °F 58% 30.09 in - NW 5.8 mph - N/A   Unknown